Flag for Burkina Faso Weather past 2 weeks in Koudougou, Burkina Faso

Now
81 °F

Passing clouds.


Feels Like: 86 °F
Forecast: N/A
Wind: 7 mph from Southwest

Location: Ouagadougou Airport

Current Time: Aug 3, 2015 at 11:22:30 PM

Latest Report: Aug 3, 2015 at 11:00 PM


Visibility: N/A

Pressure: 29.98 "Hg

Humidity: 84%

Dew point: 75 °F

Location of KoudougouLocation

Historic Weather in Koudougou — Graph

°F

Koudougou temperature yesterday

Maximum temperature yesterday: 82 °F (at 1:00 PM)
Minimum temperature yesterday: 72 °F (at 8:00 AM)
Average temperature yesterday: 78 °F

Past Weeks' High & Low Weather Summary

 TemperatureHumidityPressure
High91 °F (Jul 25, 3:00 PM)100% (Jul 20, 6:00 AM)30.09 "Hg (Jul 20, 6:00 AM)
Low70 °F (Jul 20, 6:00 AM)52% (Jul 25, 4:00 PM)29.83 "Hg (Jul 20, 3:00 AM)
Average80 °F81%29.95 "Hg
* Reported Jul 19 10:00 PM — Aug 3 10:00 PM, Koudougou, Weather by CustomWeather, © 2015

Note: Actual official high and low records may vary slightly from our data, if they occured in-between our weather recording intervals... More about our weather records

Advertising

Koudougou weather history for previous 24 hours

 ConditionsComfort  
Time TempWeatherWind HumidityBarometerVisibility
10:00 PM
Mon, Aug 3
81 °FPassing clouds.7 mph84%29.95 "HgN/A
9:00 PM82 °FPassing clouds.5 mph79%29.95 "HgN/A
8:00 PM82 °FPassing clouds.5 mph79%29.95 "HgN/A
7:00 PM84 °FPassing clouds.6 mph70%29.92 "HgN/A
6:00 PM86 °FScattered clouds.8 mph66%29.92 "HgN/A
5:00 PM88 °FScattered clouds.10 mph59%29.89 "HgN/A
4:00 PM88 °FScattered clouds.7 mph59%29.92 "HgN/A
3:00 PM88 °FScattered clouds.6 mph66%29.92 "HgN/A
2:00 PM88 °FScattered clouds.7 mph62%29.92 "HgN/A
1:00 PM86 °FScattered clouds.8 mph66%29.95 "HgN/A
12:00 PM86 °FScattered clouds.6 mph70%29.98 "Hg5 mi
11:00 AM82 °FScattered clouds.6 mph74%30.01 "Hg5 mi
10:00 AM81 °FScattered clouds.8 mph79%30.01 "Hg5 mi
9:00 AM81 °FScattered clouds.5 mph79%29.98 "Hg5 mi
8:00 AM77 °FScattered clouds.5 mph89%29.98 "Hg5 mi
7:00 AM75 °FScattered clouds.2 mph94%29.98 "Hg5 mi
6:00 AM73 °FPassing clouds.5 mph100%29.95 "Hg5 mi
5:00 AM73 °FPassing clouds.2 mph94%29.95 "HgN/A
4:00 AM75 °FPassing clouds.6 mph89%29.95 "HgN/A
3:00 AM75 °FPassing clouds.5 mph94%29.92 "HgN/A
2:00 AM75 °FPassing clouds.No wind94%29.95 "HgN/A
1:00 AM75 °FPassing clouds.No wind94%29.95 "HgN/A
12:00 AM75 °FPassing clouds.2 mph94%29.95 "HgN/A
11:00 PM
Sun, Aug 2
75 °FPassing clouds.No wind94%29.95 "HgN/A
Weather by CustomWeather, © 2015

See weather overviewHow to use our weather pages